Location: Newark
(30.2328°N, 54.2869°E)
Time: 19:42:50
(UTC+00:00)

OTV 5 (USA 277) - Visible Passes

Search period start: 22 August 2019 00:00
Search period end: 01 September 2019 00:00
Orbit: 305 x 329 km, 54.5° (Epoch: 20 August)

Date Brightness Start Highest point End Pass type
(mag) Time Alt. Az. Time Alt. Az. Time Alt. Az.
22 Aug ? 01:14:22 10° NW 01:16:59 71° NE 01:19:35 10° SE visible
22 Aug ? 15:55:58 10° SSW 15:58:26 32° SE 15:58:39 31° ESE visible
22 Aug ? 23:56:13 10° NNE 23:57:07 11° NE 23:58:01 10° ENE visible
23 Aug ? 16:10:16 10° SW 16:12:56 53° NW 16:15:20 12° NNE visible
24 Aug ? 00:12:19 30° ENE 00:12:19 30° ENE 00:14:14 10° ESE visible
24 Aug ? 16:25:46 10° W 16:27:33 16° NW 16:29:21 10° N visible
26 Aug ? 15:19:56 10° WSW 15:22:20 27° NW 15:24:42 10° NNE visible
